TimeCST,TemperatureF,Dew PointF,Humidity,Sea Level PressureIn,VisibilityMPH,Wind Direction,Wind SpeedMPH,Gust SpeedMPH,PrecipitationIn,Events,Conditions,WindDirDegrees,DateUTC
12:53 AM,35.1,34.0,96,30.30,7.0,Calm,Calm,-,N/A,,Clear,0,2012-11-17 06:53:00
1:53 AM,34.0,33.1,96,30.30,10.0,Calm,Calm,-,N/A,,Clear,0,2012-11-17 07:53:00
2:53 AM,33.1,32.0,96,30.30,9.0,Calm,Calm,-,N/A,,Clear,0,2012-11-17 08:53:00
3:53 AM,33.1,30.9,92,30.31,9.0,Calm,Calm,-,N/A,,Clear,0,2012-11-17 09:53:00
4:50 AM,33.8,30.2,87,30.33,2.5,Calm,Calm,-,N/A,,Clear,0,2012-11-17 10:50:00
4:53 AM,33.1,30.9,92,30.33,6.0,Calm,Calm,-,N/A,,Clear,0,2012-11-17 10:53:00
5:53 AM,33.1,30.0,89,30.34,9.0,Calm,Calm,-,N/A,,Clear,0,2012-11-17 11:53:00
6:53 AM,33.1,32.0,96,30.37,8.0,Calm,Calm,-,N/A,,Clear,0,2012-11-17 12:53:00
7:53 AM,43.0,39.9,89,30.38,10.0,ENE,4.6,-,N/A,,Clear,70,2012-11-17 13:53:00
8:53 AM,50.0,39.9,68,30.38,10.0,ENE,8.1,-,N/A,,Clear,60,2012-11-17 14:53:00
9:53 AM,54.0,37.9,55,30.37,10.0,NE,17.3,20.7,N/A,,Clear,40,2012-11-17 15:53:00
10:53 AM,57.0,35.1,44,30.36,10.0,NE,11.5,19.6,N/A,,Clear,40,2012-11-17 16:53:00
11:51 AM,59.0,35.6,42,30.33,10.0,NE,6.9,-,N/A,,Partly Cloudy,50,2012-11-17 17:51:00
11:53 AM,60.1,35.1,39,30.33,10.0,ENE,8.1,-,N/A,,Partly Cloudy,70,2012-11-17 17:53:00
12:53 PM,61.0,35.1,38,30.30,10.0,East,8.1,-,N/A,,Clear,80,2012-11-17 18:53:00
1:53 PM,62.1,35.1,37,30.29,10.0,NNE,11.5,17.3,N/A,,Clear,30,2012-11-17 19:53:00
2:53 PM,62.1,34.0,35,30.29,10.0,NNE,8.1,-,N/A,,Clear,20,2012-11-17 20:53:00
3:53 PM,60.1,36.0,41,30.30,10.0,North,9.2,-,N/A,,Clear,10,2012-11-17 21:53:00
4:53 PM,54.0,37.0,53,30.30,10.0,North,5.8,-,N/A,,Clear,10,2012-11-17 22:53:00
5:53 PM,50.0,39.9,68,30.31,10.0,Calm,Calm,-,N/A,,Clear,0,2012-11-17 23:53:00
6:53 PM,45.0,39.0,80,30.33,10.0,Calm,Calm,-,N/A,,Clear,0,2012-11-18 00:53:00
7:53 PM,42.1,37.9,85,30.34,10.0,Calm,Calm,-,N/A,,Clear,0,2012-11-18 01:53:00
8:53 PM,37.9,36.0,93,30.34,10.0,SE,3.5,-,N/A,,Clear,140,2012-11-18 02:53:00
9:53 PM,41.0,36.0,82,30.33,10.0,NE,5.8,-,N/A,,Clear,50,2012-11-18 03:53:00
10:53 PM,39.0,35.1,86,30.33,10.0,Calm,Calm,-,N/A,,Scattered Clouds,0,2012-11-18 04:53:00
11:53 PM,37.9,35.1,89,30.32,10.0,Calm,Calm,-,N/A,,Clear,0,2012-11-18 05:53:00